Miscellaneous Local Product
Issued by NWS North Platte, NE

Home | Current Version | Previous Version | Graphics & Text | Print | Product List | Glossary On
Versions: 1 2 3 4 5 6 7 8 9 10 11 12 13 14 15 16 17 18 19 20 21 22 23 24 25 26 27 28 29 30 31 32 33 34 35 36 37 38 39 40 41 42 43 44 45 46 47 48 49 50
763
AXUS43 KLBF 261310
MISLBF


WESTERN AND NORTH CENTRAL NEBRASKA HOURLY WEATHER ROUNDUP
NATIONAL WEATHER SERVICE NORTH PLATTE NE
700 AM CST SUN FEB 26 2017

NOTE: "FAIR" INDICATES FEW OR NO CLOUDS BELOW 12,000 FEET WITH NO
SIGNIFICANT WEATHER AND/OR OBSTRUCTIONS TO VISIBILITY.

NOTE: STATIONS NOT REPORTING VARIABLES SUCH AS SKY/WEATHER OR
PRESSURE ARE PROVIDED BY RAWS AND APRS NETWORKS AND ARE NOT UNDER
NATIONAL WEATHER SERVICE QUALITY CONTROL.

...OBSERVATIONS IN AND NEAR THE EASTERN PANHANDLE OF NEBRASKA...

CITY           SKY/WX    TMP DP  RH WIND       PRES   REMARKS
PINE RIDGE     CLEAR     15   4  61 W3        29.81R
CHADRON        CLEAR      4  -3  73 W8        29.82R WCI  -9
ALLIANCE       CLOUDY    -2  -7  79 W6        29.79R WCI -14
SIDNEY         CLEAR     15   4  61 NW13      29.82S WCI   1
CRESCENT LAKE    N/A     13   4  65 NW9         N/A  WCI   1
$$

...OBSERVATIONS IN NORTHERN NEBRASKA AND FAR SOUTHERN SOUTH DAKOTA...

CITY           SKY/WX    TMP DP  RH WIND       PRES   REMARKS
WINNER         FAIR      21  14  74 SW10      29.79R WCI  10
VALENTINE      CLEAR      5  -1  76 SW10      29.81R WCI -10
THEDFORD       CLEAR     15   7  71 W13       29.82S WCI   1
AINSWORTH      CLEAR     12   7  82 W10       29.81R WCI  -2
O`NEILL        CLEAR     17  10  72 W8        29.81S WCI   6
ORD            CLEAR     20   9  62 W9        29.83S WCI   9
BROKEN BOW     CLEAR     22  10  60 W13       29.83S WCI  10
VALENTINE NWR    N/A     14   7  73 W7          N/A  WCI   4
BUTTE            N/A     14   9  81 SW5         N/A  WCI   6
HALSEY           N/A     16   5  62 W6          N/A  WCI   8
CHAMBERS         N/A     14   4  63 W3          N/A
EWING            N/A     15  10  78 W8          N/A  WCI   4
$$

...OBSERVATIONS IN SOUTHWEST NEBRASKA AND FAR NORTHEAST COLORADO...

CITY           SKY/WX    TMP DP  RH WIND       PRES   REMARKS
HOLYOKE        FAIR      16  10  79 W8        29.86S WCI   5
IMPERIAL       CLEAR     22   8  55 NW10      29.87S WCI  11
OGALLALA       CLEAR     17   8  67 CALM      29.85S
NORTH PLATTE   CLEAR     11   6  81 W7        29.87R WCI   0
MCCOOK         CLEAR     17  13  84 SW9       29.90S WCI   6
LEXINGTON      CLEAR     20  13  73 W8        29.88S WCI  11
STAPLETON        N/A     14   8  78 CALM        N/A
GOTHENBURG       N/A     22  11  62 W5          N/A  WCI  16
CALLAWAY         N/A     16   9  74 W12         N/A  WCI   3
$$

...OBSERVATIONS IN CENTRAL LINCOLN COUNTY AREA...

CITY           SKY/WX    TMP DP  RH WIND       PRES   REMARKS
N.P. AIRPORT   CLEAR     11   6  81 W7        29.87R WCI   0
N.P. DOWNTOWN    N/A     18  11  74 W3          N/A
N.P. SOUTHEAST   N/A     17  10  72 CALM        N/A
N.P. HILLCREST   N/A     15  10  80 W3          N/A
$$

...SOME OBSERVATIONS FROM AROUND THE REGION...

CITY           SKY/WX    TMP DP  RH WIND       PRES   REMARKS
LARAMIE        CLOUDY     7  -3  64 SW14      29.72F WCI -10
CHEYENNE       CLOUDY    15  -1  49 W17       29.74S WCI  -1
DENVER         CLEAR     11   3  70 S10       29.78S WCI  -3
AKRON          CLEAR     20   6  55 NE3       29.82S
SCOTTSBLUFF    CLOUDY     4  -1  80 NW9       29.83R WCI -10
RAPID CITY     CLEAR     15   8  73 CALM      29.74S
BISMARCK       CLOUDY    13   9  84 CALM      29.78S
PIERRE         CLEAR     18  15  88 W5        29.77R WCI  11
SIOUX FALLS    PTCLDY    18  15  88 W5        29.77R WCI  11
OMAHA          PTCLDY    32  21  64 SW9       29.88R WCI  24
GRAND ISLAND   CLEAR     25  17  72 W12       29.88R WCI  14
KANSAS CITY    CLOUDY    35  17  47 SW10      30.01R WCI  27
WICHITA        CLOUDY    34  21  59 SE10      29.92F WCI  26
OKLAHOMA CITY  CLOUDY    39  25  57 S15       29.91F WCI  31
DALLAS         PTCLDY    43  32  65 SE12      29.95F
AMARILLO       CLEAR     31  24  75 NW5       29.82R WCI  26
DODGE CITY     PTCLDY    19  13  77 NW8       29.86R WCI   9
HAYS           CLEAR     18  12  77 N3        29.92R
GOODLAND       CLEAR     11   5  77 W6        29.87R WCI   1
$$




USA.gov is the U.S. government's official web portal to all federal, state and local government web resources and services.